Weather History for New York, NY

Change the Weather History Date:

Thursday, May 1, 2014

  Actual Average Record
Temperature  
Mean Temperature 63 °F 58 °F  
Max Temperature 77 °F 67 °F 85 °F (2001)
Min Temperature 49 °F 49 °F 38 °F (1978)
Degree Days  
Heating Degree Days 2 8  
Month to date heating degree days 2 8  
Since 1 July heating degree days 4930 4522  
Cooling Degree Days 0 1  
Month to date cooling degree days 0 1  
Year to date cooling degree days 0 9  
Growing Degree Days 12 (Base 50)    
Moisture  
Dew Point 53 °F    
Average Humidity 66    
Maximum Humidity 93    
Minimum Humidity 38    
Precipitation  
Precipitation 0.15 in 0.10 in 2.18 in (1976)
Month to date precipitation 0.15 0.10  
Year to date precipitation 19.33 14.00  
Snow  
Snow 0.00 in 0.00 in - ()
Month to date snowfall 0.0 0.0  
Since 1 July snowfall 52.4 26.9  
Snow Depth 0.00 in    
Sea Level Pressure  
Sea Level Pressure 29.78 in    
Wind  
Wind Speed 8 mph (South)    
Max Wind Speed 21 mph    
Max Gust Speed 24 mph    
Visibility 6 miles    
Events Rain    
T = Trace of Precipitation, MM = Missing Value Source: NWS Daily Summary

Daily Weather History Graph

Daily Weather History Graph

Search for Another Location

Airport:

Trip Planner

Search our weather history database for the weather conditions in past years. The results will help you decide how hot, cold, wet, or windy it might be!

Date:

Astronomy

May. 01, 2014 Rise Set
Actual Time 5:54 AM EDT 7:51 PM EDT
Civil Twilight 5:24 AM EDT 8:21 PM EDT
Nautical Twilight 4:48 AM EDT 8:58 PM EDT
Astronomical Twilight 4:08 AM EDT 9:37 PM EDT
Moon 7:39 AM EDT (5/1) 10:23 PM EDT (5/1)
Length of Visible Light 14h 57m
Length of Day
13h 57m
Waxing Crescent, 6% of the Moon is Illuminated
May 1
Waxing Crescent
May 6
First Quarter
May 14
Full
May 21
Last Quarter
May 28
New

Hourly Weather History & Observations

Time (EDT) Temp. Dew Point Humidity Pressure Visibility Wind Dir Wind Speed Gust Speed Precip Events Conditions
12:24 AM 48.2 °F 46.4 °F 93% 29.98 in 2.0 mi NE 12.7 mph - 0.20 in Rain Rain
12:51 AM 48.9 °F 46.9 °F 93% 29.96 in 2.0 mi NE 12.7 mph - 0.30 in Rain Rain
1:31 AM 53.6 °F 51.8 °F 94% 29.93 in 2.0 mi Variable 4.6 mph - 0.03 in Rain Light Rain
1:42 AM 53.6 °F 51.8 °F 94% 29.92 in 3.0 mi SE 6.9 mph - 0.03 in Rain Light Rain
1:51 AM 54.0 °F 52.0 °F 93% 29.91 in 2.0 mi South 5.8 mph - 0.08 in Rain Heavy Rain
2:31 AM 53.6 °F 51.8 °F 94% 29.87 in 6.0 mi SSE 8.1 mph - 0.06 in   Overcast
2:51 AM 54.0 °F 52.0 °F 93% 29.86 in 6.0 mi South 11.5 mph - 0.06 in   Overcast
3:36 AM 55.4 °F 53.6 °F 94% 29.83 in 4.0 mi South 9.2 mph 18.4 mph 0.01 in Rain Light Rain
3:51 AM 55.0 °F 53.1 °F 93% 29.83 in 9.0 mi South 9.2 mph - 0.01 in   Overcast
4:42 AM 55.4 °F 53.6 °F 94% 29.81 in 2.5 mi South 9.2 mph - 0.00 in Rain Light Rain
4:51 AM 55.0 °F 54.0 °F 96% 29.81 in 3.0 mi South 8.1 mph - 0.01 in Rain Light Rain
5:09 AM 55.4 °F 53.6 °F 94% 29.81 in 4.0 mi South 6.9 mph - 0.00 in   Light Drizzle
5:18 AM 55.4 °F 53.6 °F 94% 29.81 in 0.2 mi South 9.2 mph - 0.00 in   Light Drizzle
5:29 AM 55.4 °F 53.6 °F 94% 29.81 in 0.2 mi South 6.9 mph - 0.00 in   Light Drizzle
5:51 AM 55.0 °F 53.1 °F 93% 29.81 in 0.2 mi South 6.9 mph - 0.00 in   Light Drizzle
6:51 AM 54.0 °F 52.0 °F 93% 29.81 in 0.2 mi South 9.2 mph - 0.00 in   Light Drizzle
7:25 AM 53.6 °F 51.8 °F 94% 29.80 in 1.0 mi Variable 4.6 mph - 0.00 in Rain Light Rain
7:51 AM 55.0 °F 53.1 °F 93% 29.79 in 1.0 mi Variable 5.8 mph - 0.00 in   Overcast
8:51 AM 57.0 °F 54.0 °F 89% 29.79 in 1.0 mi South 4.6 mph - N/A   Overcast
9:13 AM 57.2 °F 53.6 °F 88% 29.78 in 1.0 mi Variable 6.9 mph - 0.00 in   Overcast
9:20 AM 57.2 °F 53.6 °F 88% 29.78 in 1.2 mi Variable 5.8 mph - 0.00 in   Overcast
9:51 AM 57.0 °F 54.0 °F 89% 29.80 in 1.2 mi SSW 5.8 mph - 0.00 in   Overcast
9:58 AM 57.2 °F 53.6 °F 88% 29.79 in 3.0 mi South 5.8 mph - N/A   Overcast
10:51 AM 60.1 °F 55.9 °F 86% 29.79 in 5.0 mi Calm Calm - N/A   Overcast
11:22 AM 64.4 °F 59.0 °F 83% 29.78 in 5.0 mi Calm Calm - N/A   Haze
11:51 AM 68.0 °F 60.1 °F 76% 29.78 in 8.0 mi Variable 4.6 mph - N/A   Mostly Cloudy
12:26 PM 69.8 °F 57.2 °F 64% 29.76 in 10.0 mi West 12.7 mph - N/A   Mostly Cloudy
12:51 PM 70.0 °F 55.9 °F 61% 29.76 in 10.0 mi West 13.8 mph 17.3 mph N/A   Mostly Cloudy
1:51 PM 72.0 °F 54.0 °F 53% 29.74 in 10.0 mi West 8.1 mph - N/A   Mostly Cloudy
2:51 PM 75.0 °F 54.0 °F 48% 29.72 in 10.0 mi SSW 8.1 mph - N/A   Scattered Clouds
3:51 PM 75.9 °F 48.9 °F 38% 29.70 in 10.0 mi SW 9.2 mph - N/A   Mostly Cloudy
4:51 PM 73.9 °F 54.0 °F 50% 29.69 in 10.0 mi South 11.5 mph - N/A   Mostly Cloudy
5:51 PM 73.9 °F 53.1 °F 48% 29.68 in 10.0 mi SSE 11.5 mph - N/A   Scattered Clouds
6:51 PM 71.1 °F 53.1 °F 53% 29.67 in 10.0 mi South 10.4 mph - N/A   Mostly Cloudy
7:51 PM 70.0 °F 53.1 °F 55% 29.68 in 10.0 mi SSE 6.9 mph - N/A   Mostly Cloudy
8:51 PM 66.9 °F 53.1 °F 61% 29.69 in 10.0 mi South 8.1 mph - N/A   Mostly Cloudy
9:51 PM 64.0 °F 54.0 °F 70% 29.68 in 10.0 mi South 4.6 mph - N/A   Mostly Cloudy
10:37 PM 64.4 °F 51.8 °F 64% 29.71 in 10.0 mi WNW 8.1 mph 19.6 mph 0.01 in Rain Light Rain
10:51 PM 64.0 °F 53.1 °F 67% 29.71 in 10.0 mi West 3.5 mph - 0.01 in Rain Light Rain
11:51 PM 64.0 °F 53.1 °F 67% 29.70 in 10.0 mi West 3.5 mph - 0.00 in   Overcast